EW9010 Weather Reports


Display with metric or nautical units.
time (UTC)temp
F
wind
direction
speed
MPH
gust
MPH
rain 1hr
in
rain 24hr
in
rain mn
in
humidity
%
barometer
mb
20260508175005 48 239 22.0 33.0 0.00 0.00 0.00 54 1003.7
20260508174504 48 252 15.0 27.0 0.00 0.00 0.00 56 1003.6
20260508174004 48 248 18.0 34.0 0.00 0.00 0.00 55 1003.6
20260508173008 47 239 22.0 34.0 0.00 0.00 0.00 55 1003.6
20260508172504 47 242 19.0 31.0 0.00 0.00 0.00 55 1003.5
20260508172005 47 237 19.0 30.0 0.00 0.00 0.00 56 1003.7
20260508171504 47 248 15.0 30.0 0.00 0.00 0.00 56 1003.6
20260508170503 47 263 22.0 30.0 0.00 0.00 0.00 57 1003.8
20260508170005 47 252 16.0 27.0 0.00 0.00 0.00 57 1004.1
20260508165504 46 238 12.0 27.0 0.00 0.00 0.00 58 1004.0
20260508165005 46 240 10.0 28.0 0.00 0.00 0.00 58 1004.2
20260508164504 46 231 19.0 28.0 0.00 0.00 0.00 59 1004.2
20260508164008 46 224 11.0 33.0 0.00 0.00 0.00 59 1003.9
20260508163503 46 220 17.0 33.0 0.00 0.00 0.00 58 1004.1
20260508163004 46 215 17.0 32.0 0.00 0.00 0.00 59 1004.2
20260508162504 46 227 19.0 32.0 0.00 0.00 0.00 59 1004.1
20260508162004 46 235 21.0 32.0 0.00 0.00 0.00 58 1004.2
20260508161505 46 230 22.0 35.0 0.00 0.00 0.00 59 1004.1
20260508161005 46 217 17.0 35.0 0.00 0.00 0.00 61 1004.2
20260508160504 46 221 15.0 36.0 0.00 0.00 0.00 60 1004.2
20260508160006 46 234 22.0 36.0 0.00 0.00 0.00 62 1004.0
20260508155504 45 231 11.0 35.0 0.00 0.00 0.00 60 1004.1
20260508155005 45 223 18.0 35.0 0.00 0.00 0.00 60 1004.0
20260508154504 45 227 22.0 34.0 0.00 0.00 0.00 60 1004.0
20260508154005 45 239 22.0 34.0 0.00 0.00 0.00 61 1004.3
20260508153504 45 230 25.0 35.0 0.00 0.00 0.00 61 1004.3
20260508153005 45 220 28.0 35.0 0.00 0.00 0.00 62 1004.6
20260508152504 44 227 17.0 33.0 0.00 0.00 0.00 63 1004.5
20260508152005 44 225 21.0 33.0 0.00 0.00 0.00 64 1004.6
20260508151504 44 219 17.0 30.0 0.00 0.00 0.00 64 1004.7
20260508151005 44 219 16.0 30.0 0.00 0.00 0.00 65 1004.7
20260508150504 43 229 15.0 34.0 0.00 0.00 0.00 65 1004.8
20260508150005 43 234 20.0 34.0 0.00 0.00 0.00 66 1004.8
20260508145504 43 227 15.0 34.0 0.00 0.00 0.00 67 1004.8
20260508145006 43 229 21.0 34.0 0.00 0.00 0.00 67 1004.5
20260508144504 43 235 22.0 34.0 0.00 0.00 0.00 67 1004.8
20260508144005 43 233 21.0 34.0 0.00 0.00 0.00 68 1004.5
20260508143005 43 236 21.0 36.0 0.00 0.00 0.00 68 1004.6
20260508142006 43 232 17.0 34.0 0.00 0.00 0.00 68 1004.3
20260508141504 43 234 22.0 34.0 0.00 0.00 0.00 68 1004.5
20260508140504 42 244 25.0 34.0 0.00 0.00 0.00 68 1004.3
20260508140005 42 237 19.0 42.0 0.00 0.00 0.00 68 1004.4
20260508135505 43 232 23.0 42.0 0.00 0.00 0.00 68 1004.2
20260508135006 43 227 23.0 37.0 0.00 0.00 0.00 68 1003.8
20260508134504 43 228 20.0 36.0 0.00 0.00 0.00 69 1003.8
20260508134005 42 228 17.0 38.0 0.00 0.00 0.00 68 1003.8
20260508133505 43 234 26.0 40.0 0.00 0.00 0.00 69 1003.7
20260508133005 43 242 23.0 40.0 0.00 0.00 0.00 69 1003.7
20260508132504 43 233 17.0 36.0 0.00 0.00 0.00 69 1003.8
20260508131505 43 228 24.0 40.0 0.00 0.00 0.00 69 1004.0
20260508131005 43 232 24.0 40.0 0.00 0.00 0.00 69 1003.9
20260508130504 43 234 21.0 40.0 0.00 0.00 0.00 69 1004.0
20260508125504 43 226 23.0 35.0 0.00 0.00 0.00 70 1004.1
20260508125005 43 253 18.0 37.0 0.00 0.00 0.00 70 1004.1
20260508124504 43 270 18.0 37.0 0.00 0.00 0.00 70 1003.9
20260508124005 43 231 16.0 36.0 0.00 0.00 0.00 71 1004.0
20260508123504 43 228 18.0 36.0 0.00 0.00 0.00 71 1003.8
20260508123005 42 249 16.0 46.0 0.00 0.00 0.00 71 1003.9
20260508122504 42 235 20.0 46.0 0.00 0.00 0.00 72 1004.0
20260508122005 42 221 27.0 35.0 0.00 0.00 0.00 72 1003.8
20260508121504 42 227 18.0 40.0 0.00 0.00 0.00 73 1003.9
20260508121005 42 230 21.0 40.0 0.00 0.00 0.00 74 1003.9
20260508120504 42 232 15.0 29.0 0.00 0.00 0.00 75 1003.9
20260508120005 42 225 17.0 30.0 0.00 0.00 0.00 76 1003.7
20260508115504 42 224 19.0 40.0 0.00 0.00 0.00 76 1003.7
20260508115005 41 229 22.0 40.0 0.00 0.00 0.00 77 1003.7
20260508114503 41 239 15.0 35.0 0.00 0.00 0.00 77 1003.7
20260508114005 41 241 18.0 35.0 0.00 0.00 0.00 77 1003.8
20260508113504 41 253 26.0 35.0 0.00 0.00 0.00 77 1003.7
20260508112504 41 227 23.0 36.0 0.00 0.00 0.00 77 1003.5
20260508111504 41 224 17.0 33.0 0.00 0.00 0.00 77 1003.6
20260508111006 41 218 17.0 33.0 0.00 0.00 0.00 77 1003.5
20260508110504 41 228 21.0 35.0 0.00 0.00 0.00 77 1003.5
20260508110007 42 230 21.0 35.0 0.00 0.00 0.00 77 1003.4
20260508105505 42 236 17.0 30.0 0.00 0.00 0.00 78 1003.7
20260508105007 42 229 22.0 40.0 0.00 0.00 0.00 78 1003.6
20260508104505 42 222 23.0 40.0 0.00 0.00 0.00 77 1003.3
20260508103504 42 297 25.0 34.0 0.00 0.00 0.00 76 1003.4
20260508103006 42 258 19.0 34.0 0.00 0.00 0.00 76 1003.5
20260508102005 42 250 20.0 36.0 0.00 0.00 0.00 76 1003.4
20260508101505 42 246 23.0 36.0 0.00 0.00 0.00 76 1003.3
20260508101006 42 247 21.0 36.0 0.00 0.00 0.00 77 1003.2
20260508100505 42 242 22.0 34.0 0.00 0.00 0.00 78 1003.3
20260508095504 42 254 27.0 36.0 0.00 0.00 0.00 79 1003.3
20260508095006 42 250 20.0 35.0 0.00 0.00 0.00 80 1003.3
20260508094505 42 248 21.0 37.0 0.00 0.00 0.00 80 1003.3
20260508094005 42 252 19.0 37.0 0.00 0.00 0.00 81 1003.2
20260508093504 42 260 18.0 34.0 0.00 0.00 0.00 81 1003.3
20260508092504 42 244 23.0 40.0 0.00 0.00 0.00 82 1003.3
20260508092005 42 238 19.0 35.0 0.00 0.00 0.00 82 1003.1
20260508091505 42 242 20.0 34.0 0.00 0.00 0.00 82 1003.0
20260508090504 42 244 22.0 45.0 0.00 0.00 0.00 83 1003.2
20260508085504 42 237 20.0 32.0 0.00 0.00 0.00 84 1003.0
20260508085005 42 242 16.0 40.0 0.00 0.00 0.00 85 1003.1
20260508084505 42 244 24.0 40.0 0.00 0.00 0.00 86 1003.2
20260508084005 42 248 22.0 36.0 0.00 0.00 0.00 87 1003.1
20260508083505 42 236 18.0 33.0 0.00 0.00 0.00 87 1003.3
20260508083005 42 236 21.0 33.0 0.00 0.00 0.00 88 1003.3
20260508082504 42 235 18.0 30.0 0.00 0.00 0.00 88 1003.5
20260508082005 42 230 19.0 33.0 0.00 0.00 0.00 88 1003.3
20260508081505 42 253 19.0 33.0 0.00 0.00 0.00 88 1003.4
20260508081005 42 250 24.0 32.0 0.00 0.00 0.00 88 1003.5
20260508080504 42 242 21.0 32.0 0.00 0.00 0.00 88 1003.7
20260508080005 43 254 17.0 32.0 0.00 0.00 0.00 88 1003.7
20260508075505 43 254 20.0 31.0 0.00 0.00 0.00 88 1003.5
20260508074504 43 251 15.0 29.0 0.00 0.00 0.00 88 1003.4
20260508074005 43 267 21.0 31.0 0.00 0.00 0.00 88 1003.5
20260508073005 43 257 22.0 31.0 0.00 0.00 0.00 88 1003.6
20260508072504 43 265 24.0 31.0 0.00 0.00 0.00 88 1003.7
20260508072005 43 247 20.0 33.0 0.00 0.00 0.00 88 1003.6
20260508071504 43 251 18.0 33.0 0.00 0.00 0.00 88 1003.6
20260508071005 43 255 17.0 32.0 0.00 0.00 0.00 88 1003.8
20260508070005 44 243 21.0 36.0 0.00 0.00 0.00 87 1003.6
20260508065006 44 254 21.0 38.0 0.00 0.00 0.00 88 1003.7
20260508064504 44 234 24.0 38.0 0.00 0.00 0.00 89 1003.6
20260508064005 44 233 28.0 35.0 0.00 0.00 0.00 89 1003.6
20260508063504 44 242 22.0 32.0 0.00 0.00 0.00 90 1003.7
20260508062504 43 246 25.0 33.0 0.00 0.00 0.00 93 1003.8
20260508062005 43 250 15.0 33.0 0.00 0.00 0.00 93 1003.7
20260508061504 43 262 20.0 30.0 0.00 0.00 0.00 94 1003.7
20260508061004 43 267 21.0 32.0 0.00 0.00 0.00 94 1003.9
20260508060005 43 258 20.0 34.0 0.00 0.00 0.00 94 1003.9
20260508055005 43 253 21.0 31.0 0.00 0.00 0.00 95 1003.9
20260508054504 43 239 19.0 36.0 0.00 0.00 0.00 95 1003.9
20260508054005 43 239 26.0 36.0 0.00 0.00 0.00 95 1003.8
20260508053503 43 244 19.0 33.0 0.00 0.00 0.00 95 1004.1
20260508053005 43 236 17.0 27.0 0.00 0.00 0.00 95 1004.1
20260508051504 44 234 18.0 36.0 0.00 0.00 0.00 94 1004.1
20260508051005 44 232 12.0 36.0 0.00 0.00 0.00 94 1004.2
20260508050504 44 235 27.0 35.0 0.00 0.00 0.00 93 1004.0
20260508050005 44 244 14.0 35.0 0.00 0.00 0.00 93 1004.0
20260508045504 44 256 22.0 30.0 0.00 0.00 0.00 92 1004.0
20260508045005 44 251 17.0 30.0 0.00 0.00 0.00 92 1004.1
20260508044005 44 244 21.0 34.0 0.00 0.00 0.00 90 1004.2
20260508043504 44 242 25.0 34.0 0.00 0.00 0.00 90 1004.0
20260508043005 44 235 18.0 31.0 0.00 0.00 0.00 89 1004.2
20260508042504 45 241 20.0 35.0 0.00 0.00 0.00 89 1004.0
20260508042005 45 242 20.0 35.0 0.00 0.00 0.00 89 1004.0
20260508041504 45 244 24.0 36.0 0.00 0.00 0.00 88 1004.1
20260508041005 45 248 17.0 36.0 0.00 0.00 0.00 88 1003.9
20260508040006 45 244 23.0 36.0 0.00 0.00 0.00 89 1004.0
20260508035504 45 239 26.0 36.0 0.00 0.00 0.00 89 1003.9
20260508035005 45 244 22.0 34.0 0.00 0.00 0.00 89 1004.1
20260508034005 45 254 21.0 34.0 0.00 0.00 0.00 88 1004.1
20260508032506 45 252 23.0 33.0 0.00 0.00 0.00 87 1004.1
20260508032005 45 235 20.0 33.0 0.00 0.00 0.00 87 1004.1
20260508031504 45 241 16.0 31.0 0.00 0.00 0.00 86 1004.1
20260508031006 45 233 19.0 30.0 0.00 0.00 0.00 87 1004.2
20260508030006 44 222 21.0 33.0 0.00 0.00 0.00 87 1004.2
20260508024505 44 254 23.0 34.0 0.00 0.00 0.00 87 1004.3
20260508023507 44 229 22.0 34.0 0.00 0.00 0.00 87 1004.1
20260508023005 44 240 17.0 36.0 0.00 0.00 0.00 87 1004.2
20260508022504 44 231 17.0 36.0 0.00 0.00 0.00 87 1004.1
20260508022006 44 206 23.0 33.0 0.00 0.00 0.00 88 1004.2
20260508021505 44 230 17.0 38.0 0.00 0.00 0.00 88 1004.2
20260508021005 44 252 21.0 38.0 0.00 0.00 0.00 88 1004.5
20260508020504 44 245 16.0 37.0 0.00 0.00 0.00 88 1004.4
20260508020006 44 242 18.0 37.0 0.00 0.00 0.00 88 1004.5
20260508015505 44 233 27.0 37.0 0.00 0.00 0.00 88 1004.5
20260508014504 44 248 16.0 39.0 0.00 0.00 0.00 87 1004.5
20260508014006 45 247 23.0 39.0 0.00 0.00 0.00 87 1004.5
20260508013504 45 240 17.0 32.0 0.00 0.00 0.00 86 1004.5
20260508013006 45 238 20.0 32.0 0.00 0.00 0.00 86 1004.5
20260508012006 45 246 20.0 37.0 0.00 0.00 0.00 86 1004.6
20260508011508 45 239 19.0 30.0 0.00 0.00 0.00 86 1004.8
20260508011005 45 236 20.0 32.0 0.00 0.00 0.00 85 1004.7
20260508010504 45 253 21.0 32.0 0.00 0.00 0.00 84 1004.9
20260508010006 44 262 11.0 27.0 0.00 0.00 0.00 84 1004.7
20260508005505 44 247 19.0 27.0 0.00 0.00 0.00 84 1004.7
20260508004504 44 245 18.0 34.0 0.00 0.00 0.00 83 1004.6
20260508002505 44 257 21.0 34.0 0.00 0.00 0.00 83 1004.7
20260508002006 44 252 21.0 40.0 0.00 0.00 0.00 83 1004.8
20260508001505 44 247 22.0 40.0 0.00 0.00 0.00 83 1004.6
20260508001006 44 247 18.0 36.0 0.00 0.01 0.00 83 1004.5
20260508000505 44 252 26.0 36.0 0.00 0.01 0.00 83 1004.6
20260508000006 44 250 16.0 28.0 0.00 0.01 0.00 83 1004.5
20260507235505 44 238 19.0 28.0 0.00 0.01 0.00 83 1004.8
20260507235006 44 250 17.0 34.0 0.00 0.01 0.00 83 1004.8
20260507233506 45 236 11.0 34.0 0.00 0.03 0.00 86 1005.0
20260507233006 45 231 21.0 39.0 0.00 0.03 0.00 87 1004.9
20260507232507 45 245 26.0 39.0 0.00 0.03 0.00 88 1004.8
20260507232006 45 249 17.0 32.0 0.00 0.03 0.00 88 1004.9
20260507231505 45 248 15.0 30.0 0.00 0.04 0.00 89 1004.8
20260507231006 45 238 20.0 36.0 0.00 0.06 0.00 89 1004.6
20260507230505 45 235 15.0 36.0 0.00 0.08 0.00 90 1004.6
20260507224506 46 347 17.0 34.0 0.00 0.16 0.00 91 1004.8
20260507224006 46 302 29.0 34.0 0.00 0.17 0.00 91 1004.7
20260507223505 46 244 21.0 34.0 0.00 0.18 0.00 91 1004.6
20260507223006 46 347 17.0 30.0 0.00 0.18 0.00 92 1004.6
20260507221504 47 13 21.0 32.0 0.00 0.19 0.00 93 1004.6
20260507221009 47 299 15.0 27.0 0.00 0.19 0.00 93 1004.5
20260507220504 47 332 15.0 25.0 0.00 0.21 0.00 93 1004.6
20260507215005 48 332 16.0 26.0 0.00 0.27 0.00 92 1004.3
20260507214504 48 349 12.0 34.0 0.00 0.38 0.00 92 1004.1
20260507214005 48 1 17.0 34.0 0.00 0.38 0.00 92 1004.0
20260507213504 48 342 17.0 27.0 0.00 0.40 0.00 92 1004.1
20260507213005 48 310 17.0 27.0 0.00 0.52 0.00 92 1003.8
20260507212005 48 250 14.0 27.0 0.00 0.52 0.00 92 1003.5
20260507211504 48 237 16.0 23.0 0.00 0.52 0.00 92 1003.5
20260507211006 48 233 15.0 29.0 0.00 0.52 0.00 92 1003.4
20260507210504 48 240 15.0 29.0 0.00 0.52 0.00 92 1003.5
20260507210006 49 243 18.0 30.0 0.00 0.53 0.00 92 1003.3
20260507205505 49 242 18.0 30.0 0.00 0.55 0.00 93 1003.2
20260507204504 49 242 19.0 31.0 0.00 0.55 0.00 94 1003.1
20260507204005 49 248 18.0 25.0 0.00 0.55 0.00 94 1003.3
20260507203504 49 240 14.0 30.0 0.00 0.55 0.00 94 1003.4
20260507203006 49 245 14.0 30.0 0.00 0.55 0.00 94 1003.7
20260507202504 49 238 18.0 26.0 0.00 0.55 0.00 93 1003.6
20260507202005 49 231 18.0 26.0 0.00 0.55 0.00 93 1003.8
20260507201504 49 244 15.0 25.0 0.00 0.55 0.00 93 1003.6
20260507201005 49 238 15.0 25.0 0.00 0.55 0.00 93 1004.0
20260507200504 49 217 17.0 27.0 0.00 0.55 0.00 92 1003.7
20260507200005 49 224 19.0 27.0 0.00 0.55 0.00 92 1003.9
20260507195504 49 236 17.0 24.0 0.00 0.55 0.00 91 1003.9
20260507195006 50 236 14.0 32.0 0.00 0.56 0.00 91 1003.9
20260507194505 50 244 15.0 32.0 0.00 0.56 0.00 90 1004.0
20260507194005 50 252 12.0 29.0 0.00 0.56 0.00 89 1003.9
20260507193504 51 254 19.0 29.0 0.00 0.56 0.00 89 1004.0
20260507193005 51 255 15.0 30.0 0.00 0.56 0.00 88 1003.7
20260507192504 51 249 18.0 30.0 0.00 0.56 0.00 88 1003.9
20260507192005 51 237 18.0 28.0 0.00 0.56 0.00 87 1003.6
20260507191504 51 231 17.0 28.0 0.00 0.56 0.00 87 1003.8
20260507191005 52 223 17.0 27.0 0.00 0.56 0.00 87 1003.8
20260507190504 52 230 18.0 27.0 0.00 0.56 0.00 87 1004.0
20260507185504 53 253 11.0 26.0 0.00 0.57 0.00 84 1003.7
20260507185005 53 234 21.0 26.0 0.00 0.57 0.00 84 1003.8
20260507184005 53 255 17.0 26.0 0.00 0.57 0.00 84 1003.4
20260507183504 53 246 12.0 27.0 0.00 0.57 0.00 85 1003.4
20260507183006 53 220 21.0 27.0 0.00 0.57 0.00 85 1003.2
20260507182504 53 227 19.0 31.0 0.00 0.57 0.00 86 1003.2
20260507182005 53 254 18.0 31.0 0.00 0.57 0.00 86 1003.2
20260507181504 53 259 11.0 24.0 0.00 0.57 0.00 86 1003.0
20260507181005 52 238 15.0 24.0 0.00 0.57 0.00 87 1003.1
20260507180504 52 231 17.0 27.0 0.00 0.57 0.00 87 1003.2
20260507180005 53 247 15.0 27.0 0.00 0.57 0.00 86 1003.1
20260507175504 53 244 15.0 26.0 0.00 0.57 0.00 85 1003.1